Home > Weather > Boulder > Past weeks

Flag for USA Weather for the Past 2 Weeks in Boulder, Colorado, USA

Now
55 °F

Clear.


Feels Like: 55 °F
Forecast: 50 / 80 °F
Wind: No wind

Location: Broomfield / Jeffco

Current Time: May 6, 2016 at 7:08:56 AM

Latest Report: May 6, 2016 at 5:55 AM


Visibility: 10 mi

Pressure: 30.00 "Hg (24.71 "Hg at 1623m altitude)

Humidity: 44%

Dew Point: 34 °F

Location of BoulderLocation

Historic Weather in Boulder — Graph

°F

Boulder Temperature Yesterday

Maximum temperature yesterday: 79 °F (at 2:48 PM)
Minimum temperature yesterday: 48 °F (at 2:15 AM)
Average temperature yesterday: 61 °F

High & Low Weather Summary for the Past Weeks

 TemperatureHumidityPressure
High79 °F (May 5, 2:48 PM)100% (Apr 27, 2:34 AM)30.35 "Hg (Apr 27, 2:34 AM)
Low30 °F (Apr 27, 6:46 AM)16% (Apr 23, 1:50 PM)29.56 "Hg (Apr 25, 5:46 PM)
Average48 °F61%30.00 "Hg
* Reported Apr 21 5:15 AM — May 6 5:55 AM, Boulder, Weather by CustomWeather, © 2016

Note: Actual official high and low records may vary slightly from our data, if they occured in-between our weather recording intervals... More about our weather records

Advertising

Boulder Weather History for the Previous 24 Hours

Scroll right to see more
 ConditionsComfort  
Time TempWeatherWind HumidityBarometerVisibility
5:55 AM
Fri, May 6
55 °FClear.No wind44%30.00 "Hg10 mi
5:46 AM57 °FPartly cloudy.No wind41%30.00 "Hg50 mi
5:34 AM55 °FClear.No wind44%30.00 "Hg10 mi
5:15 AM54 °FClear.No wind51%29.99 "Hg10 mi
4:54 AM54 °FClear.No wind47%29.99 "Hg10 mi
4:36 AM55 °FClear.5 mph44%29.99 "Hg10 mi
4:16 AM55 °FClear.9 mph44%29.98 "Hg10 mi
3:56 AM57 °FClear.9 mph41%29.99 "Hg10 mi
3:35 AM57 °FClear.9 mph41%29.99 "Hg10 mi
3:14 AM57 °FClear.7 mph41%29.99 "Hg10 mi
2:55 AM55 °FClear.3 mph44%29.99 "Hg10 mi
2:36 AM55 °FClear.6 mph47%30.00 "Hg10 mi
2:14 AM54 °FClear.No wind51%30.00 "Hg10 mi
1:55 AM57 °FClear.3 mph44%30.01 "Hg10 mi
1:35 AM57 °FClear.5 mph44%30.02 "Hg10 mi
1:14 AM55 °FClear.5 mph47%30.03 "Hg10 mi
12:55 AM55 °FClear.5 mph51%30.03 "Hg10 mi
12:36 AM59 °FClear.3 mph45%30.05 "Hg10 mi
12:16 AM59 °FClear.6 mph45%30.05 "Hg10 mi
11:55 PM
Thu, May 5
59 °FClear.7 mph45%30.05 "Hg10 mi
11:36 PM57 °FClear.5 mph48%30.04 "Hg10 mi
11:15 PM63 °FClear.5 mph34%30.04 "Hg10 mi
9:51 PM68 °FPartly cloudy.7 mph28%30.05 "Hg30 mi
8:46 PM72 °FBroken clouds.13 mph25%30.03 "Hg30 mi
7:51 PM72 °FBroken clouds.12 mph25%30.02 "Hg50 mi
6:45 PM73 °FBroken clouds.12 mph22%30.02 "Hg70 mi
5:48 PM77 °FBroken clouds.10 mph21%30.03 "Hg70 mi
4:58 PM75 °FBroken clouds.10 mph24%30.04 "Hg70 mi
3:45 PM79 °FBroken clouds.8 mph17%30.06 "Hg70 mi
2:48 PM79 °FBroken clouds.5 mph17%30.08 "Hg70 mi
1:46 PM77 °FPartly sunny.7 mph17%30.10 "Hg70 mi
12:59 PM77 °FPartly sunny.7 mph18%30.11 "Hg70 mi
11:47 AM75 °FPartly sunny.9 mph19%30.13 "Hg70 mi
9:47 AM72 °FPartly sunny.3 mph27%30.15 "Hg70 mi
8:47 AM64 °FPartly sunny.No wind34%30.16 "Hg70 mi
7:47 AM55 °FPartly sunny.No wind59%30.17 "Hg70 mi
Weather by CustomWeather, © 2016

See weather overviewHow to use our weather pages